RH
44 46 46 48 48 48 49 52 58 58 54 54 54 57 61 60 60 67 75 77 78 81 81 81 81 83 89 89 87 89 88 91 96 97 97 94 95 94 89 89 84 80 79 75 71 65 59 55 53 52 52 55 57 58 57 54 50 45 38 32 28 25 24 25 25 26 26 26 27 27 27 26 25 24 23 22 22 22 22 21 21 20 20 19 19 19 20 20 21 22 23 26 29 33 37 39 42
45 45 45 46 46 47 48 53 56 56 56 55 55 60 62 61 67 77 82 81 81 83 84 82 81 86 92 91 86 87 87 91 97 96 96 92 90 91 89 86 80 77 76 72 67 62 58 55 54 54 55 57 55 51 47 42 36 32 28 27 27 29 29 30 29 28 28 28 28 29 28 27 27 27 26 25 24 25 25 25 25 25 24 24 23 23 22 22 22 21 21 21 21 22 23 24 25
43 42 43 42 43 44 48 54 52 53 57 58 59 62 63 66 73 84 89 87 84 83 84 83 85 88 89 87 83 86 89 95 98 96 95 90 90 87 85 82 78 76 73 68 64 61 59 57 55 54 52 49 44 38 33 30 28 28 29 30 31 32 31 30 28 27 29 30 30 29 29 30 30 30 29 27 25 25 25 24 23 23 23 23 23 23 23 22 22 22 22 22 22 22 21 22 22
40 40 41 41 42 42 48 54 50 52 58 62 63 64 68 74 80 89 91 88 88 84 83 85 88 89 89 91 88 89 95 99 98 96 94 91 91 84 80 79 76 74 69 66 63 62 61 57 52 47 43 38 32 29 28 30 31 32 33 33 34 33 31 29 28 29 31 32 31 31 32 33 32 29 26 22 19 16 14 12 11 11 11 12 12 12 12 12 11 11 11 11 11 11 12 13 14
40 40 41 41 42 42 47 51 50 52 58 63 67 69 76 84 88 90 86 85 89 86 84 85 88 89 90 94 92 94 96 98 98 94 89 88 89 82 78 76 73 72 69 66 64 62 57 50 45 39 34 32 33 34 36 35 35 36 36 37 37 37 35 31 30 32 34 33 32 31 30 28 24 19 14 11 8 5 4 3 2 2 2 2 3 3 3 3 2 2 2 2 2 2 3 3 3
40 40 42 41 40 42 44 46 50 52 59 66 70 75 84 90 89 87 84 85 88 87 86 83 86 89 88 91 94 98 97 97 94 88 86 85 86 81 74 76 76 72 69 65 60 55 47 41 37 34 32 38 44 45 46 43 42 45 45 45 41 38 37 33 33 35 33 31 27 23 20 15 11 8 5 4 3 2 1 1 1 1 1 1 1 1 1 1 1 1 1 1 2 2 2 2 2
40 41 42 42 42 44 44 44 48 53 62 70 74 82 89 87 84 86 87 87 89 89 88 82 85 90 90 92 95 97 97 94 88 84 87 83 82 82 76 80 80 73 67 58 51 43 46 49 41 40 45 51 52 49 53 53 54 56 52 50 45 40 37 35 34 31 27 21 16 12 8 6 4 3 2 2 1 1 1 1 1 1 1 1 1 1 2 2 2 2 2 2 3 3 3 3 3
41 44 42 43 45 45 45 44 50 58 66 73 79 87 89 85 84 87 86 88 92 89 86 85 86 91 91 92 94 94 92 88 85 84 84 83 83 84 80 81 78 70 59 47 44 42 56 67 58 59 66 67 63 59 60 59 57 55 52 51 48 42 36 31 25 19 14 10 6 4 3 2 2 1 1 1 1 1 1 1 1 1 2 2 2 2 2 3 3 3 4 4 4 4 4 4 3
43 46 43 44 45 46 46 48 58 64 68 75 83 87 86 85 87 86 84 87 89 87 87 88 87 87 88 91 93 91 87 82 83 83 82 86 88 85 84 88 79 64 54 52 60 61 67 74 69 72 77 75 71 69 69 63 55 51 51 49 42 33 25 19 12 8 5 4 3 2 2 1 1 1 1 1 1 1 1 1 2 2 2 3 3 3 3 4 4 4 5 5 5 5 5 5 4
48 49 46 46 46 47 49 56 64 67 71 78 85 89 86 86 88 85 85 85 85 84 86 88 84 85 86 87 87 87 88 83 83 84 81 83 86 83 86 90 79 64 63 69 76 73 69 74 74 72 71 68 63 65 64 59 53 49 46 36 26 17 12 8 5 4 2 2 1 1 1 1 1 1 1 1 1 1 1 2 2 2 3 3 3 4 4 4 5 5 6 6 5 5 5 6 5
51 52 50 49 49 50 52 61 66 68 76 80 83 87 84 86 87 85 84 84 83 81 84 87 83 84 85 82 84 86 87 84 85 85 80 80 80 81 83 83 77 70 70 71 76 75 70 73 72 65 61 55 50 51 48 45 43 37 27 16 12 9 6 4 2 2 1 1 1 1 1 1 1 1 1 1 1 2 2 3 3 3 3 4 4 5 5 5 6 6 6 6 6 6 6 5 5
50 51 51 51 52 54 57 64 70 73 79 80 81 84 83 85 86 86 84 82 83 83 83 84 83 86 85 83 88 88 86 84 86 84 81 82 77 79 82 78 78 77 72 68 70 69 63 62 60 57 53 46 44 45 40 36 30 19 11 7 6 4 3 2 1 1 1 1 1 1 1 1 1 1 2 2 2 2 2 3 3 4 4 5 5 5 6 6 6 7 7 6 6 6 6 6 5
50 51 52 54 56 60 64 69 74 78 80 80 81 84 86 88 86 85 84 81 83 83 80 81 84 87 85 86 89 89 87 84 85 83 80 81 77 79 81 80 85 85 76 66 61 58 56 54 51 50 47 43 42 39 32 25 16 10 7 5 3 2 1 1 1 1 1 1 1 1 1 1 1 2 2 2 3 3 3 4 4 5 5 6 6 6 6 6 7 7 7 7 7 6 6 5 5
50 53 55 56 60 64 69 73 78 80 80 80 81 85 89 89 85 83 84 81 80 81 78 81 86 86 86 87 86 86 84 81 83 80 79 83 82 83 83 82 83 78 68 58 54 54 51 48 45 42 39 35 30 24 18 13 10 7 5 3 1 1 1 1 1 1 1 1 1 1 1 2 2 2 2 3 3 4 5 5 6 6 6 7 7 7 7 7 7 7 7 7 7 6 5 5 4
53 56 57 58 62 68 73 77 80 80 79 81 82 85 87 85 83 83 85 84 81 81 77 79 84 85 87 86 84 83 81 82 82 78 80 83 80 79 78 73 68 63 58 54 51 50 46 41 36 30 26 22 17 13 11 9 7 4 2 2 1 1 1 1 1 1 1 1 1 2 2 2 2 3 3 4 4 5 6 6 7 7 7 7 7 7 7 8 7 7 7 7 6 5 5 4 3
54 57 60 59 64 72 76 78 79 79 80 82 81 82 82 81 82 82 86 88 83 79 77 78 81 84 87 86 85 82 80 85 84 79 81 82 78 72 68 63 60 57 55 52 49 44 37 30 22 18 16 13 11 9 7 5 3 2 1 1 1 1 1 1 1 1 1 1 2 2 2 3 3 3 4 5 6 6 7 7 7 7 8 8 8 8 8 8 8 8 7 6 5 4 4 3 3
55 59 61 59 65 72 75 76 77 78 77 78 78 79 80 78 81 84 86 89 86 80 79 78 79 82 85 85 85 83 82 85 86 84 81 79 74 66 61 58 55 53 50 47 42 34 25 19 15 13 11 9 7 5 4 2 2 1 1 1 1 1 1 1 1 1 2 2 2 2 3 3 4 5 6 6 7 7 8 8 8 8 8 8 9 9 8 8 7 6 5 4 3 3 3 3 4
59 61 61 60 68 72 74 77 78 78 75 74 74 77 81 78 77 82 83 86 86 82 78 76 76 78 82 83 81 80 83 86 87 85 75 68 63 59 57 53 49 46 41 35 29 23 18 14 12 10 8 6 4 3 2 1 1 1 1 1 1 1 1 1 1 2 2 2 3 3 4 4 5 7 7 8 8 9 9 9 9 9 9 9 9 9 8 7 5 4 3 3 3 4 4 5 6
63 61 59 63 71 74 76 78 80 81 76 74 74 76 80 79 77 80 81 80 81 79 74 74 77 79 80 82 80 80 83 82 78 72 63 58 55 53 49 44 40 33 26 21 18 16 13 11 9 8 6 4 2 2 1 1 1 1 1 1 1 1 1 2 2 2 2 3 4 4 5 6 8 8 9 9 9 10 10 10 9 9 9 9 8 7 6 4 3 3 4 5 6 8 9 11 12
63 59 60 69 74 75 78 79 81 82 79 75 73 77 79 78 79 81 81 77 78 77 74 77 81 83 83 84 83 81 78 71 64 59 53 49 44 39 34 29 24 19 15 13 12 12 10 9 7 5 3 2 2 1 1 1 1 1 1 1 1 1 2 2 2 2 3 4 5 6 8 9 10 10 10 10 10 10 10 10 10 10 9 8 6 4 3 3 4 6 8 11 13 15 18 19 20
61 61 64 74 77 75 80 83 82 81 80 77 73 76 76 76 79 81 80 76 79 80 80 85 86 86 86 84 80 72 65 60 56 50 42 37 31 27 24 20 16 12 11 10 10 9 7 6 4 3 2 1 1 1 1 1 1 1 1 1 2 2 2 2 3 4 5 7 8 9 10 11 11 11 11 11 10 11 10 10 10 9 7 5 4 3 4 5 7 11 14 17 19 21 23 24 24
56 63 70 78 79 73 79 85 83 80 79 77 75 75 72 75 79 80 83 79 79 83 85 89 87 84 80 73 66 60 58 54 46 38 32 29 26 25 21 15 11 10 10 9 8 6 5 4 2 2 1 1 1 1 1 1 1 1 1 2 2 2 3 4 5 6 8 9 10 11 11 11 11 11 11 11 11 11 11 10 9 7 5 3 3 4 6 8 11 15 18 21 22 22 23 23 24
50 61 75 80 79 72 77 83 81 82 81 78 77 74 73 76 76 79 86 82 79 80 81 84 79 72 66 61 58 57 56 47 36 32 31 29 25 23 17 11 9 9 9 7 5 4 3 2 2 1 1 1 1 1 1 1 1 1 2 2 2 3 4 6 8 9 10 11 11 12 12 12 12 12 12 12 12 11 11 9 7 4 3 3 4 6 9 13 16 20 21 21 21 22 24 25 26
49 60 76 79 79 75 79 82 79 84 83 80 78 74 77 79 74 78 85 81 79 78 74 73 68 62 61 60 59 54 46 38 33 33 30 28 26 21 14 10 9 8 6 5 4 3 2 2 1 1 1 1 1 1 1 1 1 2 2 3 4 5 7 9 10 11 11 12 12 12 12 12 12 13 13 13 12 11 9 6 4 3 3 4 6 10 15 20 20 21 20 20 23 25 27 28 29
57 63 73 74 76 76 80 81 79 84 80 78 77 73 79 82 77 79 81 78 78 75 68 65 63 64 65 61 55 46 39 35 34 33 30 27 24 18 11 9 8 6 5 4 3 2 1 1 1 1 1 1 1 1 1 1 2 2 3 5 6 8 9 11 11 12 12 13 13 13 13 13 13 14 13 13 12 10 7 4 3 3 5 7 10 15 19 21 20 20 21 22 26 29 29 29 28
63 66 70 70 71 74 77 76 76 81 78 78 75 71 77 79 79 80 77 75 73 67 62 63 65 65 63 56 48 41 38 36 33 31 28 23 18 13 9 8 7 5 4 2 2 2 1 1 1 1 1 1 1 1 1 2 2 3 5 7 9 10 11 12 12 13 13 13 13 13 14 14 14 14 14 13 10 7 4 3 3 5 7 11 14 18 18 20 21 21 23 26 29 30 30 29 30
63 63 67 70 74 79 80 75 73 75 74 80 77 71 76 76 76 75 69 68 67 64 63 65 66 62 57 51 46 44 42 37 32 29 25 20 16 11 9 8 6 4 3 2 1 1 1 1 1 1 1 1 1 1 2 2 3 5 7 9 10 11 12 13 13 13 14 14 14 14 15 15 15 15 14 11 8 5 3 3 4 7 11 15 15 16 18 23 27 26 25 25 28 30 33 35 38
65 60 61 74 82 85 87 79 76 74 71 81 79 69 73 74 71 67 61 60 62 64 66 65 63 58 54 51 50 49 46 39 33 30 25 22 17 12 9 7 5 3 2 1 1 1 1 1 1 1 1 1 1 1 2 3 5 8 9 11 11 12 13 13 14 14 14 15 15 15 15 16 15 15 12 8 5 3 3 4 6 9 13 15 14 17 22 28 31 29 27 28 33 39 44 49 50
70 63 58 71 77 77 82 76 74 75 71 79 80 71 71 71 68 62 55 57 61 64 64 64 62 58 57 56 56 54 49 42 37 33 29 26 19 12 9 7 5 3 2 1 1 1 1 1 1 1 1 1 2 2 3 5 8 10 11 12 13 13 13 14 15 15 15 15 16 16 16 16 15 13 9 6 4 2 3 5 8 10 12 14 16 22 27 29 27 25 31 38 45 51 55 56 53
71 65 59 65 69 71 77 74 72 72 70 78 81 73 68 65 62 55 53 60 65 64 64 65 65 64 63 63 62 58 51 45 41 38 35 29 21 13 8 6 4 2 2 1 1 1 1 1 1 1 1 1 2 3 5 7 9 11 12 13 13 14 14 15 15 15 16 16 17 17 17 17 14 11 8 5 3 2 5 6 9 11 12 15 21 25 26 26 25 27 39 50 54 56 55 48 37
71 68 67 69 72 78 83 82 81 78 74 76 74 66 61 60 56 52 55 64 68 66 64 67 69 69 69 69 69 63 56 51 47 45 43 33 23 15 9 6 4 2 2 1 1 1 1 1 1 1 1 2 3 4 7 9 11 12 13 14 14 14 15 15 16 16 17 17 18 18 17 16 13 10 7 4 2 3 5 7 8 10 14 20 24 26 25 24 27 37 49 56 58 55 44 30 18
72 71 73 73 75 79 83 82 81 77 69 65 62 59 58 57 54 54 58 64 68 69 68 68 71 73 73 73 73 69 64 59 55 53 50 39 26 16 9 6 4 2 2 1 1 1 1 1 1 1 2 3 4 6 8 10 12 13 14 14 14 15 16 16 16 17 17 18 18 18 17 15 12 9 5 2 2 4 6 7 9 13 18 24 27 26 24 25 34 49 59 59 58 48 33 22 17
72 72 72 73 75 76 79 79 75 69 63 64 62 58 60 59 56 57 58 62 66 67 67 68 69 71 72 72 73 74 71 66 61 58 55 42 27 17 10 6 4 3 2 1 1 1 1 1 1 2 2 3 5 8 10 12 13 14 14 15 15 16 16 17 17 17 18 19 19 19 17 14 11 8 4 2 3 5 7 8 11 17 22 25 28 25 23 30 43 56 63 63 56 43 33 29 25
68 69 69 71 74 75 74 73 73 70 67 71 65 56 59 60 60 62 62 66 66 66 68 65 65 68 71 74 77 78 74 70 65 59 54 44 30 19 11 6 4 3 2 1 1 1 1 1 1 2 2 4 7 9 11 13 14 14 15 15 16 16 17 17 18 18 19 20 20 19 17 13 10 6 2 3 4 6 8 11 16 20 24 27 27 23 24 36 51 60 65 67 59 46 40 38 35
62 64 66 67 71 73 72 71 72 70 67 70 66 59 58 57 59 61 61 62 60 63 68 64 63 68 71 74 77 77 73 70 66 59 54 46 32 21 13 7 5 3 2 2 1 1 1 1 2 2 3 5 8 11 12 13 14 15 15 16 16 17 18 18 18 19 20 21 21 19 17 12 8 4 2 3 5 7 9 13 17 21 25 27 25 22 25 40 55 62 68 72 65 54 47 45 45
61 62 63 65 67 69 71 72 72 70 69 71 72 67 61 57 57 57 57 55 53 59 65 63 63 65 67 68 70 70 69 68 65 57 52 45 33 23 15 8 5 3 3 2 2 2 1 2 2 2 4 6 9 11 12 14 14 15 16 16 17 18 18 19 19 20 21 21 21 19 16 10 6 3 2 4 5 7 11 15 18 23 27 26 23 21 25 43 58 63 71 76 70 62 53 51 54
59 60 61 63 65 68 70 71 71 71 71 71 73 71 65 58 55 56 58 57 56 60 64 64 64 63 61 61 60 60 60 60 60 55 49 43 33 24 17 9 5 4 3 2 2 2 2 2 3 3 4 7 10 11 13 14 15 15 16 17 18 18 19 20 20 21 22 22 21 19 14 9 5 2 2 4 5 9 14 16 20 25 28 24 22 21 27 48 60 64 74 76 72 67 60 59 63
56 57 59 61 62 65 68 70 70 71 71 71 72 73 70 63 60 60 60 60 62 62 64 64 61 59 55 52 53 53 51 52 53 51 45 39 33 25 17 10 6 4 3 3 2 2 2 2 3 4 5 7 10 12 13 14 15 16 17 17 18 19 20 20 21 22 23 23 22 18 13 8 4 2 2 3 5 12 15 16 21 26 27 23 22 24 34 53 61 63 71 73 71 69 64 65 69
54 54 55 57 59 62 65 67 69 71 71 71 71 72 71 64 60 59 57 57 58 56 57 56 53 51 50 50 53 53 51 50 47 44 39 35 32 25 16 9 6 5 4 3 2 2 2 3 4 4 5 8 10 12 13 14 15 16 17 18 19 20 21 21 22 23 24 23 22 18 13 8 3 2 2 3 7 14 16 18 24 27 26 23 23 29 42 57 63 62 68 70 69 70 68 69 73
51 52 53 54 56 59 61 63 66 68 68 69 69 69 67 63 58 56 54 53 54 52 49 48 48 49 50 50 52 55 59 56 47 41 35 32 30 23 14 9 7 6 4 3 3 3 3 3 4 5 6 8 10 12 13 15 16 16 17 18 19 21 21 22 23 24 25 24 22 18 13 7 3 2 2 4 10 16 17 20 25 27 25 23 26 35 48 61 65 64 66 68 67 71 75 76 76
49 50 51 52 54 57 58 60 63 64 66 68 69 65 59 57 59 59 55 52 53 52 48 49 49 48 48 47 49 60 70 62 46 38 33 29 28 21 13 9 8 6 5 4 3 3 3 3 4 5 6 8 11 12 13 15 16 16 18 18 20 22 22 23 24 25 26 24 22 18 13 7 2 2 3 6 12 17 18 21 26 27 26 25 30 39 50 61 66 66 67 70 70 74 80 84 81
49 50 52 52 54 57 57 59 61 62 64 66 69 72 61 51 56 61 55 51 51 48 44 45 44 39 37 42 51 69 81 65 44 36 31 27 25 18 12 9 8 7 5 4 3 3 3 3 4 5 6 8 10 12 13 15 16 17 18 19 21 22 23 24 25 26 26 24 22 18 12 6 2 2 3 7 14 18 18 22 25 27 27 28 32 39 43 49 58 60 63 68 73 78 82 85 87
50 51 53 53 56 57 57 58 61 62 63 63 66 75 68 50 50 56 51 46 45 41 36 32 33 31 31 41 52 70 80 60 39 34 30 26 22 15 11 9 8 8 6 5 4 3 3 3 4 5 6 8 10 12 13 15 16 17 18 20 21 23 24 25 26 27 26 23 22 19 12 5 2 2 3 8 14 18 19 22 25 28 29 29 32 37 37 37 45 52 58 64 70 76 79 83 91
51 52 54 54 55 57 57 58 61 62 62 63 64 71 73 58 47 49 47 44 44 42 36 32 31 31 34 42 49 63 69 48 31 32 29 25 21 14 11 10 9 9 6 6 4 3 3 3 4 5 6 8 10 12 13 15 16 17 19 20 22 24 25 26 28 27 26 23 22 19 12 5 2 2 4 8 14 17 19 22 26 29 30 29 32 38 39 36 36 43 54 63 70 75 76 80 89
51 53 55 55 56 59 59 59 62 64 62 63 64 68 76 65 45 44 47 44 45 45 44 43 41 39 40 42 43 50 51 36 29 31 28 26 23 18 15 11 10 10 8 7 5 4 4 3 4 5 6 8 10 12 13 15 16 17 19 21 22 25 26 28 29 28 26 23 22 19 12 4 1 2 3 7 13 16 18 22 26 29 30 30 33 38 44 43 36 35 44 57 70 78 79 81 88
49 52 55 54 56 58 60 61 62 64 63 62 63 67 73 65 45 42 46 43 42 43 46 49 48 45 41 39 42 42 38 34 34 33 30 30 28 24 20 17 14 11 9 8 6 4 3 3 4 5 6 8 9 12 13 14 17 17 19 21 23 25 26 29 29 28 26 23 22 19 11 4 1 2 3 6 13 16 17 21 25 29 31 31 33 35 40 48 45 35 37 47 60 74 81 85 90
48 50 55 54 54 54 59 62 59 64 68 62 59 62 68 65 49 42 44 43 42 41 44 49 50 47 39 34 38 39 37 39 39 36 34 34 34 32 30 29 25 17 13 10 7 5 4 3 4 4 6 8 9 12 13 14 17 17 19 21 23 25 27 29 30 28 26 24 22 18 11 5 1 2 3 5 12 15 15 19 24 30 32 31 32 33 35 46 53 44 39 43 50 60 71 80 88
44 48 54 53 51 49 53 57 57 65 70 60 55 58 65 66 50 40 44 44 42 40 41 46 51 52 47 39 35 35 37 39 38 39 40 40 42 42 41 41 37 31 25 16 9 6 5 4 4 4 6 8 9 11 13 15 16 17 19 21 23 26 28 30 30 28 26 24 22 19 12 5 1 2 2 4 10 13 14 18 24 30 35 33 31 31 32 41 54 55 49 48 50 53 57 63 73
40 45 50 52 54 52 56 65 64 62 60 54 53 57 62 59 44 39 44 43 41 41 38 41 48 53 54 50 43 39 38 39 40 44 46 47 48 47 49 49 48 45 39 30 18 9 5 4 3 4 6 7 9 11 12 15 16 17 20 22 24 26 28 31 30 28 26 23 21 18 11 4 1 2 3 3 7 10 12 16 22 27 35 39 34 31 33 39 51 58 57 59 61 59 57 54 56
38 42 44 47 57 61 67 75 70 58 53 50 52 57 57 48 39 40 43 41 42 42 40 39 42 49 55 56 52 48 43 42 44 47 50 52 51 50 51 52 54 54 51 46 34 16 6 5 3 4 5 7 9 10 12 14 16 18 20 22 24 26 29 31 31 28 26 23 21 18 11 5 2 1 2 3 4 7 10 13 19 24 33 43 42 37 35 39 48 55 57 64 70 72 72 64 57
37 41 41 40 47 50 55 64 63 55 52 49 49 54 51 42 38 39 39 40 41 42 42 39 37 42 49 53 55 55 50 45 46 48 50 51 52 53 55 55 57 59 60 57 46 25 10 5 4 4 4 7 8 10 12 14 15 18 20 22 24 26 30 32 32 29 25 23 21 19 13 6 2 1 1 2 3 6 9 12 17 22 30 40 46 45 40 40 49 53 53 63 73 80 84 81 75
36 40 39 38 40 40 45 55 55 54 58 55 48 43 41 38 37 36 37 39 41 42 43 41 38 39 43 48 54 59 57 51 48 49 50 51 54 57 58 58 59 61 65 65 53 33 16 6 4 4 4 6 8 9 11 13 15 18 20 22 24 26 30 33 32 29 26 23 21 19 14 7 3 1 1 2 3 6 8 11 15 19 26 33 41 48 46 44 51 53 51 57 70 81 89 89 87
35 37 35 36 40 39 42 48 50 54 58 52 43 37 35 35 34 33 35 38 39 42 43 44 44 42 44 50 55 59 61 56 50 51 53 53 55 60 61 61 63 63 67 69 57 37 20 9 4 4 4 6 7 9 11 13 15 18 20 22 25 26 30 33 33 29 26 23 21 20 16 10 5 2 1 1 2 5 8 9 12 16 22 26 32 43 48 49 50 52 51 52 61 77 90 91 87
35 36 35 36 40 40 39 42 50 59 59 48 40 39 36 34 33 31 34 36 38 41 42 43 45 45 47 52 55 58 62 61 55 52 54 54 56 62 64 64 67 65 67 69 57 36 21 10 5 5 4 5 7 8 10 13 15 17 20 22 24 26 30 34 33 30 27 24 21 20 17 12 7 2 1 1 1 3 7 9 10 13 18 22 26 36 46 53 52 51 55 57 58 67 79 84 85
34 35 35 35 37 38 38 41 47 54 62 59 46 37 33 32 33 31 31 34 36 38 40 42 44 46 48 51 54 57 61 64 61 55 55 57 60 66 67 69 72 68 67 68 55 34 21 12 6 5 4 5 7 8 10 13 15 18 20 22 24 26 30 35 34 30 28 25 22 21 19 15 10 4 2 1 1 2 4 8 9 10 14 18 23 28 38 53 62 60 60 64 66 66 67 71 75
32 33 34 34 36 39 37 40 41 43 58 65 52 41 34 28 31 32 31 33 34 36 38 40 42 45 48 51 53 56 60 65 66 62 60 62 66 70 71 73 74 68 66 68 55 34 21 13 7 5 5 5 6 8 10 12 15 18 20 23 24 26 30 35 34 31 29 27 23 21 20 17 12 7 3 1 1 2 2 5 8 10 12 15 19 22 25 39 59 70 71 73 78 78 69 64 69
30 30 32 32 35 38 37 39 39 40 56 65 60 54 40 25 29 32 31 32 33 35 37 38 40 42 46 50 52 55 60 64 68 68 67 68 71 75 75 75 74 68 67 69 59 39 22 14 10 5 4 5 6 8 10 12 15 18 20 23 24 26 30 35 35 31 29 28 25 22 20 18 15 10 5 2 1 2 1 3 5 9 13 14 15 18 19 24 37 53 64 69 75 81 75 64 69
29 29 30 30 31 35 38 43 39 36 47 53 53 52 37 25 30 31 30 34 33 34 36 37 39 40 42 47 49 53 58 62 66 69 70 72 76 77 78 78 76 71 69 70 64 48 28 15 11 7 5 5 6 8 9 11 15 18 20 23 25 26 31 36 35 32 30 28 26 23 20 19 17 12 7 3 1 1 2 2 3 5 10 14 15 15 17 19 23 30 38 41 46 56 60 55 56
Wind_Speed
8 6 3 1 1 4 7 6 3 5 9 14 15 14 14 17 20 18 15 12 10 9 9 10 9 7 7 9 8 11 10 6 9 10 8 6 7 7 6 6 4 3 2 1 2 3 3 4 4 5 4 4 5 5 6 6 7 8 8 9 9 10 11 12 12 13 13 14 14 14 15 15 16 16 17 17 16 16 17 16 16 16 17 17 17 18 18 18 19 19 19 19 20 21 21 22 22
6 3 1 1 3 5 7 5 4 9 13 16 15 14 16 19 19 15 11 9 9 8 8 8 6 7 4 8 7 10 9 7 8 9 6 5 7 6 5 5 4 3 1 1 2 2 3 3 4 4 3 4 4 5 6 6 7 8 9 10 10 11 12 13 14 14 14 15 15 16 16 17 17 18 18 18 16 17 18 18 18 18 18 18 19 19 19 20 20 20 20 20 20 21 22 22 22
2 0 1 3 5 6 6 3 7 13 15 17 16 15 17 19 16 11 8 7 7 7 7 5 3 4 3 6 7 9 8 8 9 7 5 6 7 7 6 5 4 3 1 1 1 2 2 3 3 2 3 3 4 5 6 7 8 9 10 11 12 12 13 14 14 15 15 15 16 16 17 17 18 18 19 19 18 18 18 18 18 18 18 19 19 19 20 20 20 20 21 21 21 22 22 23 23
1 1 2 4 6 6 6 6 10 15 14 16 16 16 18 16 11 7 7 6 5 5 5 4 2 4 4 4 6 8 8 8 8 7 6 7 7 7 6 5 4 2 1 0 1 2 2 3 2 2 3 4 5 6 7 8 9 10 11 12 13 13 14 15 15 15 15 16 17 17 17 18 19 19 19 19 19 19 18 18 17 17 18 18 19 19 19 19 19 19 20 20 20 21 21 22 22
2 3 4 5 6 6 6 8 12 15 15 16 16 18 17 11 7 6 7 5 3 2 3 3 2 4 3 3 5 7 8 8 7 6 6 7 7 5 6 5 3 2 2 1 1 1 2 3 3 3 4 6 7 8 9 9 10 11 12 13 14 15 15 16 16 16 16 17 18 18 18 19 19 19 19 19 20 19 18 17 17 17 17 17 17 17 17 18 18 18 19 19 19 20 20 20 21
4 5 6 6 5 6 7 10 13 15 15 15 17 15 11 7 5 6 6 3 2 3 4 4 4 4 3 4 5 5 6 6 5 4 5 6 6 4 4 4 3 2 2 1 1 1 2 3 4 5 6 8 9 10 11 11 12 13 13 14 15 16 16 16 16 16 17 17 18 18 18 18 19 19 19 19 20 19 18 17 16 17 16 17 17 17 18 17 18 18 18 19 20 20 20 20 20
3 4 5 5 6 7 9 11 13 14 14 14 13 9 5 5 4 5 5 2 2 5 5 4 5 5 5 5 6 7 6 5 4 5 4 5 5 3 3 4 3 2 2 2 2 3 4 5 6 7 8 8 10 11 12 12 13 13 14 15 16 16 17 16 15 15 17 18 18 18 17 17 18 18 17 18 19 18 17 17 17 17 17 17 18 18 19 19 19 20 21 21 22 22 22 22 22
2 2 2 4 7 7 9 11 12 12 11 11 7 3 3 5 4 5 5 3 3 7 6 6 6 5 5 6 7 7 6 5 4 4 4 4 4 3 3 4 3 2 3 2 3 4 5 5 6 7 8 8 10 11 12 13 14 14 15 16 16 16 16 16 15 15 16 18 18 17 17 17 17 16 16 16 17 17 17 18 18 19 19 20 20 21 22 21 21 22 23 23 23 24 24 24 24
3 2 2 4 6 8 9 9 9 9 9 7 2 2 5 6 5 5 5 4 5 7 7 6 5 5 6 6 6 6 6 5 6 5 5 5 5 4 4 4 3 2 2 3 4 4 4 5 6 7 8 8 10 11 12 14 15 15 16 16 15 15 15 15 16 16 16 17 17 16 16 16 16 15 15 15 16 17 18 19 20 20 21 22 22 23 24 24 23 23 24 23 23 25 26 25 24
2 3 4 6 6 7 9 8 8 8 6 2 3 5 6 6 6 6 5 4 6 8 7 6 5 5 5 5 6 6 5 5 6 6 5 4 4 5 5 3 2 1 2 3 4 5 5 7 8 8 9 10 10 12 13 14 15 15 14 15 15 15 15 15 16 17 17 16 16 16 15 15 15 15 16 16 17 19 19 21 21 22 23 23 23 23 24 25 25 24 25 25 25 26 27 27 26
3 6 7 6 6 6 7 8 7 5 2 3 6 7 7 7 6 6 5 4 5 6 6 5 6 5 5 5 5 5 4 4 4 5 4 3 5 6 5 3 1 2 2 3 4 5 6 7 9 10 11 11 12 13 14 14 15 14 13 13 14 15 15 16 17 17 16 16 15 14 14 14 15 16 17 18 19 20 21 22 23 23 24 25 25 25 25 25 26 26 26 26 27 27 28 28 28
5 7 8 6 6 5 5 6 4 1 1 4 6 7 7 8 7 5 5 5 6 6 5 6 7 6 5 5 4 4 3 4 5 5 5 5 6 6 4 3 2 4 4 4 5 7 7 8 9 10 12 12 12 13 15 15 15 15 13 13 14 15 15 16 17 16 16 15 15 14 15 16 17 18 19 20 20 21 23 24 24 25 25 26 26 26 27 27 28 28 27 28 28 29 29 30 30
6 7 7 6 5 3 2 2 1 2 3 5 6 5 5 6 6 5 4 5 7 7 6 7 7 6 5 4 4 4 4 5 5 4 5 6 5 4 4 4 5 6 6 6 6 8 8 9 10 11 12 12 12 13 14 15 15 15 14 14 14 15 15 16 16 16 15 16 15 15 16 17 18 19 21 22 22 23 24 25 25 26 27 27 27 28 28 29 30 30 30 30 30 30 31 31 32
7 6 6 6 3 1 2 3 3 4 5 6 6 6 5 5 5 5 4 4 6 8 7 7 7 6 4 3 4 4 4 4 4 4 6 6 4 4 6 6 6 6 6 7 8 8 9 10 11 11 11 11 11 12 13 13 14 14 15 15 15 15 14 14 14 15 15 16 16 16 17 19 20 21 22 23 24 25 26 26 26 27 29 29 28 29 29 29 30 31 31 31 31 31 32 32 32
6 6 6 4 1 3 5 5 5 5 6 7 7 7 6 5 5 6 6 4 6 8 7 7 6 5 4 3 4 4 3 4 4 5 6 6 5 5 5 5 6 6 7 8 9 10 11 11 11 11 10 10 10 11 11 12 13 14 15 15 14 13 12 13 13 14 15 16 17 18 19 21 22 24 24 25 26 26 27 27 27 28 29 29 29 29 30 30 30 31 31 31 32 32 32 33 34
5 5 5 2 4 6 6 7 6 5 6 8 8 7 6 6 6 7 7 6 6 8 7 7 6 5 5 3 4 4 4 4 4 6 7 6 6 5 5 6 8 8 9 10 11 11 11 11 11 10 9 9 9 10 10 11 12 13 14 14 13 12 12 13 14 15 16 17 19 20 22 23 24 25 25 26 27 27 28 27 28 28 28 29 29 29 30 30 31 31 32 32 33 34 34 35 36
4 3 3 3 8 8 8 8 8 7 7 9 9 9 6 5 7 7 8 8 7 7 7 6 6 6 5 3 3 4 5 5 5 6 7 6 6 6 7 8 9 9 10 10 11 11 11 11 11 10 9 9 9 9 10 11 11 12 12 12 12 12 13 15 16 18 19 20 21 22 23 24 25 25 26 27 27 28 28 28 28 29 29 30 30 30 31 31 32 32 33 34 35 36 36 37 38
0 3 4 8 12 11 11 11 10 8 7 9 9 10 8 5 7 8 8 8 7 6 6 6 7 6 5 3 3 5 6 6 6 6 7 7 7 7 8 8 9 9 9 10 11 11 12 11 11 11 10 10 10 11 11 11 10 10 10 11 12 14 15 17 19 20 21 22 22 23 23 24 25 26 27 27 27 27 28 28 29 29 29 30 30 31 31 32 32 33 34 35 36 36 37 37 37
3 4 8 12 14 13 13 12 11 8 6 8 10 10 9 8 8 8 8 8 8 6 6 8 8 7 7 5 5 7 8 8 7 7 8 7 8 8 8 9 9 10 10 10 10 11 12 12 11 10 10 11 12 12 12 11 11 11 12 13 14 15 17 18 20 21 22 22 23 23 25 26 26 27 27 27 28 28 28 28 29 29 29 30 30 31 31 32 32 33 34 34 35 35 35 35 35
6 7 12 15 14 14 14 12 11 9 7 8 10 10 10 10 9 9 8 9 10 8 9 10 9 8 8 7 7 8 9 8 8 8 8 8 8 9 9 9 9 10 10 9 9 10 11 11 11 10 11 12 13 13 12 12 12 13 13 14 16 17 18 19 20 22 22 23 23 24 26 26 27 27 27 27 27 27 27 28 28 28 29 29 30 31 31 32 32 32 33 33 33 33 32 32 32
11 12 15 15 13 14 16 13 11 10 9 8 9 10 11 12 12 11 9 10 12 12 12 12 9 9 9 8 8 9 9 8 8 8 8 9 9 9 9 9 9 9 9 9 8 10 10 10 11 11 12 12 12 12 11 12 13 13 14 16 17 18 19 20 21 22 23 23 24 25 26 26 27 26 26 26 26 26 26 27 27 28 29 29 30 31 31 31 31 31 31 31 31 31 31 31 30
13 16 15 14 11 12 15 12 10 10 9 8 8 9 10 12 13 12 10 9 12 13 13 12 10 9 9 9 8 7 8 8 9 8 9 10 10 10 10 9 10 9 9 9 8 9 10 11 12 12 12 12 11 11 11 12 12 13 15 16 18 18 19 20 21 22 23 24 24 25 25 26 26 25 25 25 25 25 26 26 27 28 29 30 30 30 30 31 30 30 30 30 30 31 31 30 30
10 16 16 14 11 11 13 11 10 10 8 8 9 9 10 11 12 13 11 9 11 12 13 13 10 9 9 8 7 7 8 8 9 9 10 11 11 11 11 10 10 10 10 9 9 10 10 11 12 12 11 11 10 10 11 12 13 14 16 17 18 19 20 21 22 22 23 24 24 25 25 24 24 24 24 25 25 25 26 27 28 28 29 30 30 30 30 30 30 30 30 30 31 31 31 30 29
11 17 17 15 13 13 14 11 11 10 8 9 8 9 11 10 11 13 11 10 11 11 13 12 10 9 8 8 8 8 9 9 10 11 11 12 11 11 11 11 10 10 10 10 10 10 11 11 11 11 11 10 10 11 12 13 15 16 16 17 18 19 20 21 22 23 23 23 23 24 24 23 23 24 24 25 25 26 27 27 28 29 29 30 30 30 30 29 30 30 31 31 32 32 32 31 30
15 18 17 15 15 14 14 11 11 11 9 9 8 9 11 10 11 13 12 12 12 11 11 11 10 9 7 7 8 9 10 11 11 12 12 11 10 9 10 9 9 10 10 11 11 11 11 11 11 10 10 10 11 12 14 15 16 16 17 18 19 19 20 21 22 23 23 23 23 23 23 24 24 24 25 25 26 26 27 28 28 29 29 30 31 30 30 30 31 32 33 34 34 35 35 35 34
18 18 17 16 16 15 13 10 11 10 9 8 7 9 11 12 12 11 12 13 12 11 11 10 9 8 7 7 9 10 10 11 12 11 11 10 8 8 9 10 10 10 11 12 12 12 11 11 10 10 10 11 12 13 14 15 15 16 18 18 19 20 21 22 22 22 23 23 23 23 24 24 25 25 25 26 26 27 27 28 28 29 30 31 31 31 31 33 35 36 37 37 39 39 40 40 38
18 17 18 17 16 15 13 11 10 10 11 9 6 9 12 11 11 10 11 12 11 11 10 9 8 7 7 8 9 10 10 11 11 12 11 11 10 11 11 11 11 11 12 12 12 12 11 10 10 10 11 12 13 14 14 15 16 17 18 18 20 21 21 21 21 22 23 24 23 24 25 25 25 25 26 26 27 27 28 28 29 30 30 31 32 32 34 35 36 38 39 41 42 42 40 39 37
16 16 18 18 15 14 12 10 10 9 12 12 7 9 12 10 10 10 10 10 10 10 9 8 7 7 8 8 8 9 10 10 11 12 13 13 13 12 11 11 11 12 12 12 12 11 10 10 9 10 11 12 13 14 15 16 17 17 18 19 20 20 20 21 21 23 24 24 24 24 25 25 26 26 27 27 27 27 28 28 30 31 31 31 32 34 35 34 35 37 39 40 40 38 36 33 31
14 13 16 19 15 15 14 12 12 10 12 14 8 8 10 9 9 9 8 9 9 9 8 8 7 7 8 8 8 9 10 10 11 13 14 14 13 12 11 11 12 12 12 12 11 11 10 10 10 11 12 12 13 14 15 16 16 17 18 19 19 19 20 21 22 24 24 24 24 25 25 26 26 27 27 27 27 28 28 29 31 31 32 33 34 34 34 34 36 38 37 36 34 32 29 27 26
13 12 15 19 17 17 16 13 13 11 11 10 6 6 8 9 9 8 8 8 8 8 8 7 7 7 8 7 8 9 10 10 11 13 14 14 13 12 12 12 12 13 12 11 11 11 10 10 11 12 12 12 13 14 15 16 16 17 18 18 18 19 21 22 23 24 24 24 25 25 26 26 26 27 27 28 28 28 29 30 31 32 33 35 35 34 34 35 38 40 37 31 28 27 26 25 25
12 12 13 14 14 15 14 12 10 7 7 6 4 5 7 8 8 7 7 6 7 7 7 7 7 6 7 8 8 9 10 11 11 12 14 15 14 13 12 12 13 13 12 11 11 11 11 11 11 12 12 13 14 15 15 16 17 17 17 18 19 20 22 23 24 24 24 25 25 26 26 26 26 27 27 28 28 28 30 30 31 33 34 34 34 34 36 37 38 38 34 28 25 24 25 26 25
8 9 10 10 11 13 12 11 9 6 6 6 5 5 5 6 6 6 6 6 6 6 6 6 6 6 6 7 8 9 10 10 11 13 14 15 15 14 13 12 13 13 12 11 11 11 11 11 11 12 13 14 14 15 15 16 17 16 17 18 20 21 23 24 24 24 24 25 25 26 26 26 27 27 28 28 28 29 30 31 32 33 33 33 33 35 37 38 37 33 29 27 25 24 25 25 25
7 8 9 9 9 10 10 9 9 7 7 6 5 4 4 4 4 4 5 5 5 4 4 5 6 6 6 7 7 8 9 10 11 13 14 14 14 13 12 12 12 12 11 11 11 11 11 11 12 13 14 14 15 15 16 16 16 17 18 19 20 22 23 24 24 24 24 25 26 26 26 27 27 27 28 28 29 30 31 32 33 33 33 33 34 35 37 37 35 29 25 25 25 25 25 25 25
8 8 9 9 7 7 7 7 8 7 6 5 4 3 3 3 2 1 2 2 2 3 3 4 5 5 5 6 7 8 9 10 11 13 13 14 14 13 12 11 11 12 12 12 12 11 11 11 13 14 14 14 15 15 16 16 16 17 18 19 21 23 24 24 24 24 25 25 26 26 26 27 27 27 27 28 29 30 31 33 33 32 32 33 34 36 37 35 31 27 24 25 26 26 25 26 26
8 8 9 9 8 7 6 7 7 7 7 6 5 3 2 2 2 1 1 1 1 2 3 3 4 4 4 5 6 8 9 10 11 12 13 13 13 13 12 11 11 12 12 12 12 11 11 12 13 13 14 14 15 15 15 15 16 17 19 21 22 23 24 24 24 24 25 26 26 26 26 27 27 27 27 28 29 30 32 33 32 32 32 33 35 37 38 34 29 26 24 24 26 26 26 26 26
10 9 8 9 8 7 7 7 8 8 9 8 7 5 3 3 2 2 2 1 2 2 2 2 3 3 3 4 6 8 9 10 11 12 13 13 13 13 12 11 11 12 11 12 12 11 11 12 13 13 14 14 15 15 15 16 16 18 19 21 22 23 24 24 24 25 25 26 26 26 26 26 26 27 27 28 29 31 32 32 31 31 32 34 36 38 38 34 29 26 24 23 24 25 26 26 26
11 11 10 9 8 7 6 7 8 8 7 7 7 7 6 4 2 2 2 2 2 2 1 1 1 2 2 4 6 8 9 10 10 11 12 13 13 13 12 11 10 11 11 12 12 11 11 12 12 13 14 14 15 15 15 16 16 18 19 20 21 23 24 24 25 25 25 25 26 26 26 26 26 26 27 28 29 31 31 31 31 31 32 34 37 40 39 34 29 26 22 21 22 22 23 24 24
10 10 10 9 8 7 5 5 6 6 5 6 6 6 6 5 2 2 1 1 1 1 1 1 1 1 2 4 6 8 9 9 9 10 12 12 12 12 12 10 9 11 11 12 12 11 11 12 12 13 13 14 14 14 14 15 16 17 19 20 22 23 24 24 25 25 25 26 26 26 26 26 26 26 27 28 29 30 31 31 31 32 33 35 39 41 39 33 28 25 22 20 21 20 20 20 20
7 7 8 8 7 6 5 4 4 4 4 5 5 4 3 3 3 2 1 1 1 1 2 2 2 2 2 4 6 9 9 9 9 10 11 11 11 12 11 9 8 10 11 11 11 11 11 11 12 12 13 13 13 13 14 14 16 17 19 21 23 24 24 25 25 25 26 26 26 26 26 26 26 26 27 28 29 30 30 31 31 32 34 38 41 42 39 34 29 26 22 20 20 20 19 17 17
4 4 4 5 5 4 3 3 3 3 3 4 5 5 3 3 4 3 2 1 1 1 1 2 2 2 2 3 6 8 8 8 8 8 9 9 9 11 10 8 7 9 10 11 11 11 10 11 11 12 13 13 13 13 14 15 16 17 19 22 24 25 25 25 26 26 26 26 26 26 25 26 26 26 26 28 29 29 30 31 31 33 36 40 43 43 40 35 30 26 23 21 20 20 19 16 15
5 3 2 3 3 4 3 2 2 3 4 5 8 8 3 3 4 4 4 3 3 3 2 2 2 2 2 3 6 7 7 8 8 7 6 7 8 9 8 6 7 9 10 11 11 11 10 10 11 11 12 13 13 14 14 15 17 18 20 22 24 25 25 26 26 26 26 26 26 25 25 25 25 25 26 27 28 29 30 31 31 33 37 41 43 43 40 35 31 27 25 23 22 21 18 16 16
6 5 4 4 2 2 3 2 1 3 5 5 7 6 3 5 5 4 5 5 5 5 4 3 2 2 3 4 5 5 6 7 7 5 4 6 6 6 6 6 7 8 9 10 11 10 10 10 10 11 12 12 13 14 15 16 17 18 20 21 23 23 24 25 26 26 26 26 25 24 24 25 25 25 26 27 28 29 30 31 31 34 37 39 41 42 40 37 34 31 29 26 24 23 20 19 19
7 6 6 6 3 1 2 3 2 3 5 5 4 3 3 5 6 5 5 6 6 6 5 4 3 3 3 4 4 4 5 6 5 3 4 4 5 5 5 5 6 7 8 9 10 10 10 10 10 11 12 12 13 13 14 15 16 18 19 21 23 23 24 25 26 26 26 25 24 24 24 25 25 25 26 27 27 28 29 30 31 33 36 37 39 41 41 41 39 37 34 30 25 23 21 20 21
7 6 5 6 5 2 3 4 2 4 5 4 3 4 6 5 6 7 6 6 8 7 7 6 5 4 3 4 4 4 3 4 3 3 3 3 3 4 5 5 6 6 7 9 9 10 10 10 10 11 12 12 13 13 14 15 16 18 20 21 23 24 25 25 26 27 26 25 24 24 24 25 25 25 25 26 27 27 28 29 30 31 34 36 38 40 41 41 40 40 38 34 29 26 25 23 21
8 6 5 6 6 3 3 3 3 4 5 4 4 4 5 7 6 6 4 5 7 6 6 6 6 5 4 4 4 3 2 2 2 2 2 3 4 5 5 5 6 6 7 8 9 10 10 10 10 11 11 12 12 13 14 15 16 18 20 21 23 24 25 25 26 27 26 25 24 24 24 25 25 24 25 26 26 27 28 28 29 30 32 34 36 37 39 40 40 40 41 40 36 32 30 27 24
8 6 4 5 6 3 2 2 2 3 4 4 5 4 3 6 6 4 4 6 5 4 5 6 6 6 4 2 3 3 3 2 2 2 3 4 5 6 6 6 6 7 7 8 9 10 10 10 10 10 11 12 12 13 14 15 16 17 19 21 22 24 24 25 26 27 25 24 24 24 24 24 25 24 24 25 26 26 27 27 28 29 30 31 33 35 37 39 39 39 41 43 42 38 33 29 27
9 7 4 3 5 6 4 2 0 1 3 3 3 4 3 3 4 4 5 7 5 3 3 4 5 7 6 3 2 3 3 2 2 3 4 5 7 7 8 8 8 8 8 8 8 10 10 9 10 10 11 12 12 13 13 15 16 17 19 20 22 23 24 25 26 26 25 24 24 24 23 24 24 24 24 25 25 25 26 27 27 28 28 29 30 32 35 37 37 37 38 40 42 42 39 35 31
9 7 4 2 3 4 4 2 1 0 2 1 2 5 4 4 4 6 6 7 6 3 2 1 2 5 6 6 3 3 3 3 2 3 5 6 7 8 10 10 10 10 10 9 9 10 10 10 10 10 10 11 12 13 13 14 15 17 18 20 21 23 24 25 26 26 24 24 24 23 23 24 24 23 23 24 24 25 26 26 26 26 26 27 29 30 33 35 35 35 35 37 39 41 42 41 37
8 6 5 4 3 3 2 1 0 1 2 2 5 7 6 7 7 7 6 6 6 4 2 1 0 1 3 5 5 3 2 2 2 2 4 6 7 9 10 11 12 13 13 12 11 10 10 10 10 10 10 11 12 13 14 14 15 17 18 19 21 22 24 25 26 26 24 24 24 23 23 24 23 23 22 23 23 24 25 24 24 25 26 27 28 28 30 31 32 33 33 35 37 39 41 41 41
7 7 7 5 3 3 2 3 2 3 3 3 7 7 5 8 8 8 8 6 6 6 5 4 2 2 2 3 5 4 1 1 0 1 2 4 6 8 10 11 13 14 14 14 13 11 10 10 9 9 10 11 12 12 13 14 15 17 17 19 20 22 23 25 26 25 25 24 23 23 23 23 23 22 22 22 23 24 24 24 24 25 26 26 27 27 28 29 30 31 31 32 34 36 38 38 40
6 7 7 7 5 3 2 2 1 3 5 5 6 5 6 9 9 10 10 8 8 8 6 5 3 1 1 1 4 6 3 1 2 2 2 2 4 6 8 10 12 13 14 15 14 12 10 9 9 9 10 11 12 12 13 14 15 16 17 18 20 22 23 25 25 25 25 24 23 22 22 23 23 22 21 21 22 23 24 24 24 24 24 25 25 26 26 27 28 29 30 31 31 33 34 35 36
5 6 6 7 7 5 2 0 2 4 5 4 4 6 10 12 10 11 11 10 8 7 4 3 2 2 3 3 3 5 6 3 2 3 2 2 3 5 8 10 11 13 14 15 15 13 11 9 9 9 10 11 11 12 13 14 15 16 17 18 20 21 23 24 25 25 24 24 23 22 22 22 22 22 21 21 21 22 23 23 23 23 23 23 23 24 25 25 26 26 28 29 30 30 31 32 33
5 6 6 6 6 7 4 1 3 4 2 3 6 9 13 11 9 12 14 12 11 8 5 4 3 3 3 2 3 3 6 6 1 2 2 1 3 5 7 10 12 13 14 15 16 14 11 9 9 9 9 10 11 12 13 14 15 16 16 18 19 21 22 24 25 24 24 24 23 22 21 22 22 22 21 21 21 21 22 22 22 22 22 21 22 23 23 23 24 24 25 27 28 28 28 29 30
5 6 7 6 5 6 5 2 2 4 2 5 8 10 13 10 9 13 14 13 12 10 8 6 5 6 5 3 3 3 4 6 4 1 1 1 2 5 7 10 12 13 14 15 16 14 11 9 9 9 9 9 10 12 13 13 14 15 16 17 19 20 22 23 24 24 24 24 23 22 21 22 22 22 21 21 20 20 21 21 21 22 22 21 21 21 22 22 22 23 24 25 25 26 25 25 26
7 7 8 8 5 4 6 4 2 3 2 4 8 9 10 10 11 14 14 13 13 12 9 7 6 6 6 5 4 3 4 5 5 3 1 1 2 5 7 9 11 12 13 15 16 14 12 9 9 9 9 9 10 11 12 13 14 15 16 17 18 19 21 23 24 24 23 23 23 22 21 21 22 22 22 21 20 20 20 20 21 21 21 21 21 20 20 20 20 20 21 22 23 23 23 22 23
6 8 9 9 6 5 6 4 1 1 0 2 6 7 7 10 13 13 13 12 11 11 10 8 7 6 6 5 5 4 4 4 5 5 3 2 3 5 7 9 10 11 12 14 15 14 12 9 8 8 9 9 9 10 12 13 14 15 15 16 18 19 21 22 23 23 23 23 23 22 21 21 21 21 22 21 20 20 19 19 20 21 21 21 20 20 19 18 17 17 18 19 21 21 22 21 21
4 6 8 8 6 6 6 5 4 2 1 2 1 5 8 13 13 12 14 13 10 10 10 9 8 7 6 5 6 6 4 3 4 5 5 4 5 6 7 8 9 10 11 13 15 14 12 9 7 8 8 9 9 10 11 12 13 14 15 16 17 18 20 22 23 22 22 22 22 22 22 21 21 21 21 21 20 19 19 19 19 20 20 20 20 20 19 18 17 16 17 17 18 20 21 22 21
1 3 5 6 7 6 4 3 4 4 3 1 1 4 11 16 15 13 15 15 12 9 9 10 10 8 7 6 6 6 5 5 5 5 5 5 5 6 7 7 8 9 10 12 14 14 12 9 7 7 8 8 8 9 10 12 13 14 15 16 17 18 19 21 22 22 22 21 22 22 22 21 20 21 21 21 21 20 19 18 19 19 20 20 20 20 20 20 19 17 17 17 18 19 20 21 21
Wind_Direction
175 173 174 172 344 352 346 341 319 312 320 316 317 315 308 308 306 308 312 309 301 292 303 305 292 285 243 215 209 202 205 212 215 203 198 201 193 201 192 177 183 187 191 235 278 283 280 285 290 294 304 315 319 326 329 332 331 329 330 328 327 326 323 320 319 318 317 317 316 315 313 312 311 311 309 307 307 306 305 304 302 301 299 297 295 293 290 289 288 287 286 284 282 280 279 278 277
177 173 159 351 352 353 344 343 327 320 317 310 315 312 303 304 301 306 316 314 303 296 307 297 267 283 229 193 196 189 203 215 213 204 196 186 178 185 177 159 157 159 156 226 271 276 278 282 282 289 308 322 326 332 332 333 332 331 330 327 327 324 322 319 318 317 319 319 317 316 314 314 313 313 311 309 310 309 307 306 305 303 301 299 298 295 293 292 291 290 289 287 286 284 283 282 281
161 100 3 335 337 342 335 311 322 325 313 306 311 307 301 302 302 310 322 317 298 293 292 271 243 262 187 177 189 186 206 213 203 200 195 168 166 175 163 151 149 147 155 228 274 272 274 273 280 307 327 332 334 337 337 336 334 332 329 327 326 323 321 318 317 320 322 320 317 316 316 316 315 314 313 315 316 313 309 307 307 305 304 302 298 295 294 292 292 291 290 289 288 286 285 284 283
182 313 318 321 320 323 314 280 310 321 308 305 305 302 305 308 312 322 333 326 287 275 255 242 221 216 191 185 194 199 209 205 202 204 195 159 152 164 152 149 149 145 149 158 298 287 284 286 310 342 341 340 340 338 336 335 334 330 328 327 325 322 320 318 321 325 324 320 318 318 318 316 315 315 316 318 317 313 311 310 311 308 305 302 299 298 297 296 295 295 293 293 291 290 288 286 285
251 276 287 296 302 311 304 283 300 309 303 300 298 302 310 317 325 334 342 329 277 234 195 196 188 189 172 171 184 201 199 192 202 197 179 148 142 152 144 140 134 125 98 67 3 317 312 330 344 354 351 346 344 340 335 335 336 331 329 326 324 322 321 321 326 327 323 320 317 318 317 314 314 314 317 318 314 312 315 316 315 311 309 306 304 304 303 303 303 302 300 298 297 295 294 292 291
262 265 274 287 293 301 291 286 292 295 294 293 299 304 311 323 335 345 351 326 255 153 161 177 185 176 143 147 157 170 171 173 181 154 134 131 134 137 135 123 106 94 82 67 38 354 357 3 354 353 355 350 344 341 338 336 335 330 326 324 323 323 322 324 327 325 319 316 315 315 314 313 313 314 316 314 311 315 319 319 317 315 316 313 312 312 311 312 310 307 305 303 302 301 300 298 296
274 270 277 288 283 289 276 278 283 284 291 298 307 309 320 344 359 7 16 29 149 150 157 163 164 164 150 144 141 144 147 152 149 123 116 127 130 128 125 111 105 102 91 67 34 23 16 5 352 353 355 351 342 339 336 331 328 324 324 323 324 325 323 324 324 319 314 313 313 315 316 316 314 314 315 312 313 321 323 321 321 321 320 317 317 315 314 315 312 309 308 307 307 305 302 300 299
20 331 307 301 271 277 270 271 276 277 297 306 309 325 17 21 32 35 45 68 120 141 139 134 138 143 140 136 141 141 139 140 141 139 136 133 128 119 97 94 101 91 73 48 24 24 18 354 348 355 354 349 340 338 332 325 322 322 325 326 325 325 323 322 319 315 312 311 314 319 320 318 316 317 319 317 318 324 324 322 322 322 319 318 318 315 313 312 310 310 308 308 307 303 300 298 298
30 17 328 318 270 268 270 266 268 278 306 311 309 58 61 54 50 52 66 82 102 118 122 119 123 133 130 130 141 139 137 149 154 153 144 139 134 115 87 81 83 71 57 36 16 10 6 349 350 353 349 345 337 335 328 322 322 324 325 322 321 321 320 319 317 315 314 315 321 325 323 321 323 326 326 325 324 324 322 320 320 319 317 316 315 313 310 308 307 306 303 302 300 296 295 295 293
352 342 316 315 277 269 268 258 266 284 310 357 89 74 72 68 57 59 78 98 102 107 111 108 112 125 126 132 142 140 142 156 154 140 133 136 121 106 96 89 82 85 55 27 10 353 350 348 347 343 338 336 333 329 322 321 321 323 324 319 319 321 321 322 320 320 321 325 330 331 328 328 329 329 328 326 325 322 320 318 318 317 314 312 311 309 307 305 304 302 301 299 296 295 295 295 291
312 320 316 307 281 275 267 258 271 284 307 82 87 79 73 70 65 68 89 110 110 112 112 104 113 124 129 142 148 148 146 142 132 112 107 102 92 90 87 85 74 60 35 13 358 347 346 343 339 334 330 328 329 323 317 319 319 322 325 323 323 325 326 326 324 325 328 334 336 334 332 331 329 328 326 324 323 321 319 319 318 316 313 312 311 309 307 306 304 302 302 300 298 296 295 293 292
309 312 315 305 283 278 268 259 269 273 93 82 83 80 75 71 68 74 95 116 121 123 124 115 118 126 134 148 148 137 119 102 90 83 91 86 84 90 89 85 59 36 20 1 349 346 342 338 335 331 327 327 327 321 319 321 321 325 331 332 330 329 329 327 325 330 334 338 340 337 333 331 329 326 324 323 323 321 319 319 318 316 313 312 312 311 309 308 306 304 303 301 299 297 295 294 292
310 308 308 298 280 274 261 232 140 95 92 87 79 76 82 72 67 84 103 119 127 126 124 116 113 120 131 143 137 111 98 100 98 99 101 90 84 87 76 56 37 21 10 358 347 341 337 334 331 329 327 329 328 323 322 324 325 329 335 337 333 331 330 327 328 334 338 339 339 336 332 328 327 326 324 325 324 321 320 319 318 316 313 312 312 311 309 308 307 306 304 302 300 299 297 296 294
305 299 295 286 272 233 119 106 97 95 93 95 88 86 99 91 86 100 108 119 122 115 112 109 106 109 117 129 126 112 102 109 109 97 93 89 79 55 40 29 17 7 359 351 345 339 335 332 330 329 329 330 329 325 323 324 326 331 334 335 333 334 332 330 333 338 340 338 336 333 329 328 329 328 327 326 324 321 319 318 317 315 313 313 313 311 309 308 307 305 304 303 301 300 298 297 295
298 282 277 272 143 100 100 95 99 101 92 93 94 96 107 114 109 101 102 111 106 100 99 102 103 102 107 121 123 114 110 117 101 77 72 69 61 45 28 13 5 358 352 348 343 338 333 331 331 331 333 333 330 326 326 326 329 332 331 331 334 338 337 337 339 341 340 336 334 333 331 333 332 329 327 325 322 320 319 319 317 316 314 313 313 311 309 308 307 306 305 304 302 301 299 297 295
286 264 262 236 110 98 94 91 96 102 96 92 90 91 100 119 120 108 105 103 97 98 97 98 103 106 110 128 130 114 112 110 80 71 68 56 47 35 18 7 3 356 350 346 340 335 333 334 334 336 337 335 332 328 328 329 330 331 330 334 340 343 344 342 342 343 342 339 336 335 334 334 331 327 325 323 322 321 320 319 318 316 315 314 314 312 310 310 309 308 307 306 304 302 301 299 297
278 236 226 135 107 99 92 90 92 99 101 96 95 93 91 113 123 118 111 106 103 101 99 105 112 111 114 127 125 114 109 88 57 55 57 48 35 23 15 6 359 352 346 342 338 334 334 337 340 341 344 343 339 336 334 333 332 332 335 342 347 348 348 346 345 346 344 340 337 335 333 331 328 325 324 324 323 322 321 320 319 318 317 315 314 313 312 312 311 310 309 307 306 304 302 301 300
174 156 151 116 102 95 90 90 89 95 100 98 98 95 91 97 109 112 110 110 109 100 101 112 113 111 113 106 98 110 102 76 57 46 41 36 27 18 10 2 354 348 344 342 338 333 333 340 343 342 346 345 343 344 340 338 340 345 349 352 352 351 350 348 347 345 342 339 335 333 331 329 327 325 325 324 323 322 321 320 319 319 317 316 315 315 314 313 312 310 309 307 306 305 303 302 301
137 142 126 107 100 96 92 91 88 86 85 89 92 93 94 94 101 109 109 108 103 98 104 106 107 109 104 90 84 93 82 61 50 38 29 24 18 12 4 357 349 346 344 342 337 330 331 338 343 343 343 342 345 348 344 346 355 360 360 358 356 353 350 348 347 343 339 336 334 333 331 329 328 326 325 324 323 322 321 321 320 319 318 317 316 315 314 313 312 311 309 308 307 306 305 304 303
129 129 111 100 99 98 92 89 88 85 73 80 94 99 103 101 104 111 111 109 103 102 104 100 104 106 99 88 73 67 61 51 41 33 26 19 14 10 3 355 346 342 339 337 333 326 330 338 343 344 344 347 349 350 349 357 6 5 3 360 357 353 350 348 345 341 337 336 336 333 330 328 327 326 325 324 323 323 322 321 320 320 319 317 316 315 315 314 314 313 312 311 310 309 308 306 305
118 111 101 95 98 96 89 84 83 86 83 84 95 103 111 107 106 111 114 116 112 111 108 103 103 100 94 86 72 60 55 48 40 34 26 18 13 8 360 353 345 341 339 340 336 330 338 344 345 347 349 352 353 354 359 7 9 5 1 359 356 352 348 347 344 339 337 338 336 331 328 327 326 326 326 325 325 324 323 322 321 321 319 318 317 317 317 316 315 315 314 313 311 310 308 307 305
113 100 93 90 94 95 87 83 83 84 87 89 92 101 109 106 107 110 113 119 118 119 114 108 105 98 90 81 72 64 55 45 41 33 24 16 8 3 358 356 354 350 348 347 345 341 344 347 347 350 352 356 359 359 3 10 8 2 0 358 354 350 347 346 343 339 337 336 332 329 329 328 328 328 327 327 327 326 325 324 324 322 320 319 319 319 319 318 318 317 316 314 313 311 310 310 309
112 99 93 90 91 94 87 86 91 89 91 93 94 100 100 100 106 107 110 117 117 117 111 106 104 97 88 80 70 58 52 45 40 28 18 11 4 2 1 2 359 355 353 352 351 347 348 349 349 352 356 2 5 2 5 9 5 1 359 356 352 349 347 345 342 339 335 334 331 331 331 330 330 330 330 330 330 329 328 327 325 324 322 321 321 322 322 322 322 320 319 318 317 316 316 316 314
107 103 100 97 94 91 88 89 91 90 98 98 98 103 99 98 103 106 113 116 111 107 104 101 98 90 81 74 64 55 52 43 32 22 15 9 2 0 360 360 357 355 354 353 351 350 352 352 352 357 3 7 7 5 6 6 3 359 356 354 353 350 347 344 342 339 334 333 333 334 334 333 333 334 334 334 333 331 330 328 327 326 325 324 324 326 327 326 325 324 323 324 324 323 322 321 318
98 101 100 97 92 88 87 91 91 91 96 97 102 106 105 106 104 110 117 113 109 105 102 99 92 84 75 66 62 57 48 34 24 17 12 7 0 358 358 359 358 357 355 353 352 352 356 357 0 6 9 10 10 8 6 3 360 356 355 355 353 349 347 345 342 336 332 334 338 339 337 337 338 338 337 336 335 333 331 330 329 328 328 328 329 329 329 330 330 330 330 330 329 327 325 323 321
95 98 97 93 88 84 82 84 89 93 95 91 100 105 105 108 108 114 117 113 113 109 101 97 92 85 73 63 61 55 42 29 20 14 11 10 9 7 6 5 3 360 357 356 356 357 1 3 7 12 14 15 12 8 4 360 357 356 357 354 351 350 348 344 338 333 335 342 345 342 339 341 342 340 339 338 336 334 333 332 331 332 332 332 332 332 334 337 337 336 335 333 331 328 326 323 322
93 96 95 89 83 79 74 73 82 94 100 93 96 104 103 104 108 116 118 116 116 111 102 97 93 82 70 64 60 52 39 28 21 17 14 17 19 13 8 5 3 1 359 0 2 4 7 8 10 16 19 17 11 6 2 359 359 359 355 352 352 351 345 339 336 337 343 349 347 343 342 343 342 341 341 340 337 336 335 335 335 336 337 336 335 338 342 344 341 337 336 333 330 327 324 323 323
87 91 91 87 81 79 76 72 80 91 96 95 96 102 102 102 106 112 112 112 113 108 102 97 88 75 70 65 58 48 35 28 23 19 17 19 18 10 5 4 3 3 3 5 8 9 11 11 14 19 21 17 9 4 2 2 1 357 354 354 353 347 341 338 339 344 351 351 347 345 345 345 344 344 343 340 338 338 338 339 340 340 340 340 342 346 347 345 340 336 335 332 328 325 325 327 330
80 85 90 91 88 85 83 80 85 90 92 97 103 100 103 108 109 109 106 106 105 100 96 92 83 75 72 66 54 42 32 25 23 19 16 17 14 8 5 4 5 5 6 10 13 14 15 15 17 19 19 15 7 4 4 3 359 356 356 354 350 344 342 343 345 351 353 351 348 347 347 346 346 345 343 341 341 341 342 344 344 342 342 345 348 349 347 344 339 336 336 333 330 330 333 339 339
84 86 90 94 93 87 81 77 80 85 88 93 100 105 113 116 112 109 107 108 103 94 92 87 79 74 70 61 47 35 28 22 20 18 13 13 12 8 5 5 8 9 10 15 17 17 17 16 17 17 15 12 8 6 4 0 359 359 357 353 348 346 347 349 352 354 354 351 350 349 348 348 346 345 344 343 343 344 346 346 345 346 348 351 350 349 348 346 341 338 340 341 340 341 344 345 341
95 93 90 93 95 92 85 76 73 74 74 73 88 114 119 118 114 108 104 105 99 88 82 77 74 70 62 52 38 27 23 17 15 13 8 8 10 8 5 7 10 11 12 17 19 18 17 15 16 15 11 12 11 7 3 1 1 359 355 352 350 350 352 353 355 356 354 352 351 350 349 348 346 345 345 345 345 347 349 348 348 352 354 353 350 350 349 346 344 343 344 346 348 349 349 346 343
99 97 95 93 97 100 93 85 80 80 82 76 89 112 115 116 115 109 107 105 101 93 78 72 74 71 57 46 33 21 15 12 9 8 4 3 7 9 6 8 11 11 12 19 21 20 18 14 15 14 10 11 11 7 4 3 1 358 356 355 353 353 355 356 356 356 355 353 352 350 349 348 347 347 347 347 348 350 350 350 354 357 356 353 352 351 349 347 348 348 346 346 349 352 353 351 352
99 101 101 98 98 99 98 98 96 99 102 82 77 99 99 104 106 102 107 105 104 103 86 75 76 73 55 41 29 16 10 9 5 2 2 360 4 10 8 6 11 12 13 19 22 20 17 15 16 12 7 8 8 7 5 3 1 358 357 356 355 356 357 356 356 357 356 354 353 351 349 348 348 349 349 350 351 352 352 355 359 359 356 355 354 352 351 351 351 350 348 346 347 354 357 357 360
108 107 107 105 100 96 97 101 102 106 107 82 72 92 74 66 88 88 92 98 101 97 86 72 71 69 52 36 24 12 9 10 2 358 359 357 1 10 10 6 10 14 15 18 20 18 16 17 18 11 5 5 7 6 4 2 0 359 358 357 357 358 357 357 357 357 356 355 354 351 350 349 350 351 352 353 354 354 356 1 2 359 357 356 354 353 353 355 354 352 350 348 348 354 359 1 4
97 98 101 104 101 101 99 90 90 92 89 78 67 60 38 47 48 342 2 43 51 82 86 69 70 71 52 34 21 13 12 8 360 355 353 352 357 7 9 5 9 15 15 16 18 17 15 17 17 10 4 5 7 6 3 1 360 358 359 359 358 358 358 358 358 358 357 356 354 352 351 351 352 354 355 356 356 357 1 4 3 0 358 356 355 356 356 358 359 356 352 350 350 354 359 3 5
87 86 85 89 89 96 97 85 83 84 79 72 63 48 40 60 49 352 326 329 12 65 86 66 76 84 53 32 23 18 13 6 358 351 347 348 355 4 6 3 8 14 14 15 17 15 15 18 15 8 6 5 5 4 1 360 359 359 360 359 358 358 359 359 358 359 358 356 354 353 354 353 354 356 358 358 358 1 5 6 4 2 359 357 358 359 360 0 1 358 354 353 354 355 358 3 5
88 87 85 84 84 87 89 84 83 83 75 67 62 52 49 61 62 17 329 308 352 57 91 65 93 101 54 31 26 21 13 3 355 346 342 345 354 1 1 0 6 12 14 14 13 13 14 16 12 7 6 5 5 2 358 357 357 358 359 357 357 359 0 360 359 360 358 356 355 355 356 355 356 359 360 360 1 4 7 7 5 4 2 1 2 2 3 3 2 1 358 356 358 357 0 5 6
91 92 91 89 91 93 92 92 84 76 68 55 49 45 45 51 48 17 359 322 331 114 158 190 161 98 58 38 28 24 16 2 350 341 338 345 354 358 357 356 4 11 14 12 10 11 13 14 11 6 5 4 4 360 355 354 355 358 358 356 359 2 1 360 360 0 358 356 356 357 357 357 359 1 1 1 3 7 9 8 7 5 5 7 7 6 5 7 5 5 5 3 1 1 3 9 10
89 92 91 88 93 98 97 97 89 74 54 36 29 18 6 21 29 26 60 83 274 206 172 171 148 97 56 40 34 31 19 1 345 337 338 348 356 356 351 350 2 12 12 9 8 9 12 14 10 5 3 1 1 358 353 353 355 358 358 357 0 3 2 0 1 1 358 357 358 359 358 358 0 2 3 3 6 9 9 10 9 7 9 11 11 9 9 11 12 10 10 7 5 3 3 10 15
71 83 86 77 72 79 90 96 90 68 29 17 4 345 332 1 22 29 41 50 348 323 155 137 118 98 56 46 48 40 18 354 339 334 343 357 358 351 345 344 0 12 10 7 7 8 11 14 9 5 2 358 357 357 353 352 355 359 359 358 1 3 2 1 2 1 358 357 359 360 359 360 2 3 4 5 8 10 11 12 12 11 14 15 13 13 13 15 16 14 13 8 4 3 0 6 18
41 48 51 40 36 52 60 79 81 35 3 354 346 343 1 17 12 9 4 20 26 10 30 65 81 101 88 69 60 44 15 349 336 335 353 5 357 346 338 343 3 10 8 7 6 6 10 12 7 4 1 356 355 356 353 352 355 359 360 360 2 3 1 1 2 360 357 358 0 0 360 2 4 5 6 7 10 12 13 14 14 16 20 18 17 19 20 19 18 15 14 10 6 5 2 6 19
33 31 26 18 347 2 29 29 30 9 360 351 342 342 13 15 11 360 350 12 28 22 37 60 76 102 106 89 69 45 14 350 341 349 13 10 355 345 340 351 6 7 7 8 6 4 8 11 7 3 1 356 354 355 353 352 354 358 359 360 3 2 1 2 1 359 357 360 2 1 1 4 5 6 7 9 11 13 15 16 16 20 23 21 22 24 25 25 24 20 17 14 10 8 8 15 23
33 30 24 18 360 299 355 5 353 355 356 351 340 326 338 7 27 16 6 37 46 41 54 71 88 97 99 95 78 53 14 351 356 20 27 16 360 350 355 4 8 5 8 11 7 4 7 9 6 3 1 355 353 355 353 351 353 356 357 0 3 3 2 2 360 358 359 2 4 3 3 5 6 8 9 10 12 14 16 18 18 23 25 24 25 27 27 28 28 27 24 21 18 16 16 23 26
31 30 21 5 10 9 342 343 337 344 346 333 324 323 311 329 17 15 14 51 57 55 63 69 82 89 88 94 90 72 29 352 14 46 28 26 18 9 14 15 11 6 9 13 9 5 7 8 6 3 359 354 352 355 354 351 353 355 357 1 3 3 2 2 359 359 1 3 4 3 4 6 7 9 10 11 13 14 18 19 20 25 27 25 26 28 28 28 29 30 28 26 28 31 31 31 28
17 20 19 0 7 13 331 325 305 313 327 317 319 331 302 305 351 18 13 35 50 57 59 57 65 76 82 88 90 85 70 28 40 57 42 38 33 27 26 21 15 11 10 12 10 7 6 5 6 3 358 352 351 356 354 351 352 355 358 1 2 3 2 1 359 0 2 3 5 5 5 7 8 10 10 11 13 14 18 21 22 25 28 27 27 27 27 28 29 31 31 29 32 37 40 38 34
1 0 10 18 23 18 338 331 303 284 297 309 323 335 304 310 345 30 18 8 30 56 52 41 44 58 76 89 98 104 102 87 64 57 53 42 32 29 29 25 21 16 11 10 9 8 5 3 4 1 356 350 350 355 355 351 351 355 359 1 1 2 2 0 359 1 3 4 5 6 6 7 8 10 10 11 12 14 18 22 23 26 28 28 27 26 26 26 28 32 34 33 33 37 42 42 39
351 343 346 33 37 33 37 42 85 256 299 316 335 346 330 313 344 11 9 7 16 41 54 44 36 45 52 55 96 114 114 103 69 55 56 47 37 34 33 29 22 17 12 7 7 8 4 3 4 360 354 349 348 354 355 351 351 355 360 1 1 2 2 0 0 2 4 5 6 6 7 8 9 10 10 11 12 14 18 22 24 27 28 27 26 25 24 25 27 32 37 38 37 38 41 44 42
355 343 326 336 10 33 54 63 102 104 336 326 312 330 313 267 305 336 351 9 18 21 37 63 31 25 36 43 57 98 106 105 86 65 57 51 43 38 35 30 22 17 11 5 4 5 4 3 2 357 352 348 348 353 355 351 350 354 360 1 2 3 2 1 1 2 4 6 6 6 7 8 9 11 10 11 12 14 17 21 25 28 29 27 26 24 23 24 26 30 36 40 41 40 42 45 46
14 8 351 331 341 25 33 356 306 278 306 293 293 308 295 277 298 324 341 0 9 7 343 295 224 320 5 33 45 65 102 105 93 66 49 43 38 35 32 26 20 15 9 3 359 358 1 2 0 354 349 347 348 353 353 350 349 353 359 1 3 3 2 2 2 3 5 7 7 7 8 9 9 10 10 11 12 14 16 20 24 28 30 29 26 24 22 24 26 29 33 38 41 42 43 44 47
28 25 16 3 16 38 348 310 318 303 304 300 296 301 300 304 319 329 330 328 323 333 330 290 244 195 262 350 42 57 86 184 175 353 10 22 25 29 28 24 19 13 8 2 355 352 356 358 358 352 348 347 349 352 352 350 349 352 357 2 4 4 3 2 2 3 7 8 9 8 8 9 9 10 10 10 12 13 14 17 22 26 30 29 26 24 23 24 26 29 33 37 40 42 44 44 46
22 20 22 24 36 44 334 278 264 296 304 305 293 295 310 317 331 338 333 326 314 323 328 293 279 120 146 15 51 53 51 181 213 252 299 352 10 19 22 21 18 11 6 1 354 350 349 351 356 353 347 347 349 352 352 348 349 351 356 3 5 4 3 3 3 4 7 9 9 9 9 9 9 9 10 10 11 13 14 16 20 25 29 30 28 25 23 24 27 29 32 37 40 42 43 43 44
6 11 20 27 28 26 19 260 281 296 303 311 297 308 322 324 343 1 359 357 349 342 339 312 312 51 82 84 66 48 44 48 205 228 263 330 359 11 18 19 17 10 4 359 353 348 344 345 354 354 347 347 349 351 350 347 348 350 355 3 5 4 3 3 3 5 8 10 10 10 10 9 9 9 9 9 11 13 14 15 19 23 27 29 29 27 24 25 29 30 32 36 39 41 41 40 41
347 358 2 9 10 7 11 330 322 340 345 334 322 329 341 349 9 15 10 7 6 4 356 335 331 6 37 59 53 45 38 33 29 219 236 329 354 7 15 16 14 10 4 358 352 346 340 342 352 352 346 347 350 350 348 345 347 349 356 4 6 4 3 3 4 5 8 10 10 11 10 10 10 9 9 9 10 13 13 14 17 21 25 27 29 29 25 25 28 30 32 35 38 39 38 37 37
322 342 347 347 350 357 1 334 343 29 21 326 324 331 348 4 14 11 9 11 13 15 15 1 346 356 2 3 23 39 33 27 22 332 226 331 355 5 12 14 13 8 2 358 352 345 340 341 349 348 344 347 350 350 346 344 346 350 356 4 6 4 3 3 5 6 7 10 10 10 10 11 11 9 9 9 9 12 13 12 15 19 22 25 26 27 26 24 25 28 31 34 37 39 38 36 35
308 319 326 333 336 336 350 350 356 29 1 320 326 332 352 2 359 3 8 11 17 23 27 27 14 8 3 354 8 27 32 29 20 9 316 319 357 5 8 11 11 6 0 357 352 345 341 341 344 344 344 348 349 348 344 343 346 350 356 4 7 5 2 4 6 6 7 9 9 9 10 11 11 9 10 9 9 11 12 11 12 16 20 22 24 24 24 24 23 24 29 32 34 36 37 37 36
313 315 318 326 324 310 328 330 269 350 330 305 329 330 354 3 352 356 1 2 15 23 25 33 38 33 18 359 358 5 13 20 13 12 7 352 5 9 8 10 8 2 359 355 351 347 343 339 340 344 345 346 347 345 342 343 346 350 356 3 7 4 2 4 7 7 7 8 8 9 10 11 11 10 10 9 8 9 10 10 10 13 17 19 22 22 21 23 21 20 23 25 27 29 31 34 37
334 333 330 329 321 308 321 310 273 289 245 146 36 308 332 358 357 353 355 354 1 14 18 22 29 38 36 16 0 353 349 348 346 354 360 3 10 6 2 6 3 358 356 354 351 348 344 338 339 347 344 341 344 342 340 343 346 350 356 3 6 4 2 5 8 8 7 8 8 8 10 11 11 11 11 10 9 8 9 9 9 10 13 15 18 20 20 20 20 17 16 17 19 22 26 31 35
325 343 338 339 330 310 306 296 281 282 268 241 150 281 322 353 359 350 351 350 348 358 9 9 9 21 32 25 8 351 336 324 314 324 340 348 352 354 354 358 359 354 353 353 350 346 343 339 344 352 345 339 340 338 340 344 346 351 357 2 4 3 2 5 8 9 8 8 8 8 9 11 11 11 12 10 9 8 7 8 8 8 10 11 13 16 19 19 20 18 16 15 19 23 25 28 30